Terug naar catalogus

STARLINK-4609

ActiefCommunicatieVLEO
NORAD 53619·PAYLOAD·🇺🇸 United States

Gelanceerd Aug 28, 2022 vanaf Cape Canaveral Space Force Station

Loading…

Volgende Passages (komende 24 uur)

TLE

VersSource: CelesTrak SupGP

Epoch: Sep 14, 2026, 21:10 UTC

1 53619C 22104AH  26257.88243056  .00010767  00000+0  31823-3 0  2578
2 53619  53.1585  94.0005 0000943  84.9111 205.8849 15.34374458    12

Volg STARLINK-4609 in realtime met AllMySat

Download on the App Store